[[{"header":{"parameterUnit":"m.s-1","parameterCategory":1,"la1":30.2991,"la2":30.254,"lo1":-89.0895,"lo2":-89.0444,"dy":0.0017,"dx":0.0017,"nx":28,"ny":28,"refTime":"2023-09-23T21:00:00:Z","depth":0,"parameterNumber":2,"parameterNumberName":"U-component_of_WINDS"},"data":[0,0,0,0,0,0,0,0,0,0,0,0,0,0,0,0,0,0,0,0,0,0,0,0,0,0,0,0,0,0,0,0,0,0,0,0,0,0,0,0,0,0,0,0,0,0,0,0,0,0,0,0,0,0,0,0,0,0,0.6617,0.6617,0,0.6602,0.6602,0.6602,0.6601,0.6601,0.6601,0.6601,0.6585,0.6584,0.6584,0,0,0,0,0,0,0,0,0,0,0,0,0,0.6642,0.6642,0.6617,0.6617,0.6617,0.6602,0.6602,0.6602,0.6601,0.6601,0.6601,0.6601,0.6585,0.6584,0.6583,0,0,0,0,0,0,0,0,0,0,0,0,0,0.663,0.6642,0.6617,0.6614,0.6614,0.6602,0.6602,0.6602,0.66,0.6601,0.6601,0.6601,0.6585,0.6584,0.6583,0.6573,0,0,0.6581,0.658,0,0,0,0,0,0,0,0,0.663,0.6629,0.6615,0.6615,0.6614,0.6604,0.6605,0.6592,0.66,0.6606,0.6601,0.6601,0.6591,0.6589,0.6586,0.6572,0.6572,0.6581,0.658,0.658,0.6579,0,0,0,0,0,0,0,0.6631,0.6629,0.6611,0.6615,0.6614,0.6613,0.6612,0.6602,0.6597,0.6605,0.6605,0.6603,0.659,0.6587,0.6586,0.6571,0.6581,0.658,0.6579,0.6579,0.6546,0.6545,0,0,0,0,0,0,0.6633,0.663,0.6612,0.6611,0.6623,0.6612,0.6611,0.6607,0.6597,0.6596,0.6603,0.6603,0.6588,0.6587,0.6585,0.6571,0.658,0.6579,0.6578,0.6546,0.6546,0.6545,0,0,0,0,0,0,0.6633,0.6631,0.6612,0.662,0.6618,0.6612,0.6607,0.6606,0.6603,0.6596,0.6594,0.6601,0.6588,0.6586,0.6576,0.657,0.6578,0.6578,0.6547,0.6546,0.6546,0.6543,0,0,0,0,0,0,0.6634,0.6631,0.6628,0.662,0.6617,0.6604,0.6607,0.6606,0.6601,0.6601,0.6593,0.6592,0.6588,0.6577,0.6575,0.6569,0.6577,0.6547,0.6546,0.6546,0.6543,0.6542,0.6541,0,0,0,0,0,0.6635,0.6628,0.6628,0.6626,0.6613,0.6604,0.6602,0.6599,0.6601,0.6597,0.6592,0.6592,0.6571,0.6576,0.6573,0.6567,0.6547,0.6547,0.6546,0.6544,0.6543,0.6541,0,0,0,0,0,0,0.6636,0.6627,0.6627,0.6618,0.6611,0.6604,0.6599,0.6598,0.6591,0.6591,0.6587,0.6585,0.6574,0.657,0.6575,0.6556,0.6559,0.6558,0.6559,0.6557,0.6556,0.6557,0.6576,0,0,0,0,0,0.6635,0.6629,0.6621,0.6614,0.6611,0.6605,0.6601,0.6599,0.6592,0.6589,0.6583,0.6576,0.6568,0.6563,0.6555,0.6543,0.654,0.6537,0.6536,0.6535,0.6534,0.6525,0.6523,0.6543,0.6543,0.6543,0,0,0.6633,0.6628,0.6624,0.6614,0.6609,0.6601,0.6603,0.6595,0.6589,0.6588,0.6577,0.6572,0.6564,0.6552,0.6547,0.6548,0.6528,0.6534,0.6534,0.6533,0.6524,0.6522,0.6521,0.6542,0.6542,0.6542,0,0,0.6626,0.6622,0.6614,0.6609,0.6601,0.6597,0.6595,0.6587,0.6583,0.6572,0.6571,0.6563,0.6549,0.6542,0.6537,0.6525,0.6524,0.6522,0.6517,0.6508,0.6507,0.6505,0.6499,0.6497,0.6521,0.6521,0.6521,0,0.6625,0.6614,0.661,0.6602,0.6597,0.6595,0.6586,0.6581,0.6571,0.6566,0.6569,0.655,0.6544,0.6529,0.6526,0.6523,0.6519,0.6523,0.6507,0.6506,0.6504,0.6498,0.6496,0.6521,0.6521,0.6521,0.6521,0,0.6612,0.6604,0.6599,0.6588,0.6582,0.6574,0.6568,0.6562,0.656,0.6555,0.6543,0.6536,0.6525,0.6522,0.652,0.6506,0.6507,0.6508,0.6512,0.6502,0.6496,0.6494,0.6521,0.6521,0.6521,0.6521,0,0,0.6606,0.6592,0.659,0.6585,0.6575,0.6568,0.6558,0.6548,0.6542,0.6535,0.6526,0.6513,0.6513,0.6507,0.6504,0.6497,0.6485,0.6499,0.6498,0.6495,0.6467,0.6465,0.6463,0.6484,0.6484,0.6483,0.6467,0,0.6596,0.658,0.6576,0.6562,0.6553,0.655,0.6542,0.6534,0.6529,0.652,0.6514,0.6504,0.6506,0.6502,0.6495,0.6488,0.6479,0.6489,0.6474,0.6474,0.6475,0.646,0.6459,0.6444,0.6465,0.6464,0.6464,0,0.6584,0.6575,0.656,0.6549,0.6545,0.6538,0.6527,0.6519,0.6509,0.6506,0.6498,0.6495,0.6483,0.6487,0.647,0.6477,0.647,0.6466,0.6465,0.6463,0.6468,0.6456,0.6439,0.6436,0.6461,0.6461,0.6461,0,0.6579,0.6564,0.6553,0.6548,0.6535,0.653,0.6524,0.6514,0.6507,0.6497,0.6492,0.6481,0.6475,0.6465,0.6459,0.6463,0.6441,0.6445,0.6436,0.6436,0.6432,0.6432,0.6412,0.6429,0.6429,0.6429,0.6429,0,0.6569,0.656,0.655,0.6543,0.6531,0.6526,0.6514,0.6508,0.6499,0.6489,0.6486,0.6477,0.6469,0.6458,0.6453,0.6438,0.6435,0.6431,0.6429,0.6431,0.6431,0.6426,0.6426,0.6429,0.6429,0.6429,0.6429,0,0.6563,0.6556,0.6543,0.6531,0.6528,0.652,0.6509,0.6501,0.6495,0.6482,0.6479,0.6469,0.6456,0.6449,0.6432,0.6429,0.6411,0.6411,0.6415,0.6414,0.6405,0.6405,0.638,0.6375,0.6397,0.6397,0.6396,0,0.6556,0.6549,0.6536,0.6529,0.6523,0.6513,0.6505,0.6498,0.6491,0.6477,0.647,0.6457,0.6446,0.6424,0.6415,0.6402,0.64,0.6392,0.6398,0.6399,0.6398,0.6398,0.6396,0.6391,0.6391,0.6391,0.6391,0,0.6545,0.6542,0.6532,0.652,0.6511,0.6501,0.6491,0.6486,0.6477,0.6468,0.6454,0.6446,0.6428,0.6414,0.6399,0.6392,0.6389,0.6389,0.6386,0.6386,0.6388,0.6385,0.6411,0.6389,0.6389,0.639,0.639,0.639,0.6538,0.653,0.6519,0.6507,0.6499,0.6489,0.648,0.6472,0.6461,0.6446,0.6442,0.6427,0.6415,0.6395,0.6387,0.6374,0.6375,0.6371,0.637,0.6369,0.6367,0.6391,0.6371,0.6371,0.6371,0.6371,0.6371,0,0.6525,0.6517,0.6507,0.6492,0.6482,0.6481,0.6469,0.646,0.6447,0.6436,0.6425,0.6407,0.6393,0.6382,0.6366,0.6358,0.6356,0.6354,0.6354,0.6352,0.6368,0.6371,0.6355,0.6355,0.6355,0.6355,0.6355,0.6355,0.6518,0.6504,0.6498,0.6479,0.6471,0.6457,0.645,0.644,0.643,0.6411,0.6399,0.6392,0.638,0.6363,0.6349,0.6346,0.6339,0.6337,0.6334,0.6349,0.6351,0.6352,0.6356,0.6336,0.6336,0.6318,0.6318,0.6318]},{"header":{"parameterUnit":"m.s-1","parameterCategory":1,"la1":30.2991,"la2":30.254,"lo1":-89.0895,"lo2":-89.0444,"dy":0.0017,"dx":0.0017,"nx":28,"ny":28,"refTime":"2023-09-23T21:00:00:Z","depth":0,"parameterNumber":3,"parameterNumberName":"V-component_of_WINDS"},"data":[0,0,0,0,0,0,0,0,0,0,0,0,0,0,0,0,0,0,0,0,0,0,0,0,0,0,0,0,0,0,0,0,0,0,0,0,0,0,0,0,0,0,0,0,0,0,0,0,0,0,0,0,0,0,0,0,0,0,3.55,3.55,0,3.5576,3.5577,3.5578,3.5541,3.5539,3.5537,3.5535,3.561,3.5614,3.5617,0,0,0,0,0,0,0,0,0,0,0,0,0,3.5316,3.5319,3.55,3.5501,3.5502,3.5576,3.5577,3.5578,3.5541,3.5539,3.5536,3.5534,3.5609,3.5613,3.5618,0,0,0,0,0,0,0,0,0,0,0,0,0,3.5394,3.532,3.5499,3.5492,3.5492,3.5576,3.5577,3.5578,3.5542,3.5539,3.5536,3.5533,3.5607,3.5613,3.5618,3.5713,0,0,3.5636,3.5638,0,0,0,0,0,0,0,0,3.539,3.5401,3.5492,3.5493,3.5493,3.5546,3.554,3.5623,3.5542,3.5523,3.5535,3.5531,3.5591,3.5598,3.5618,3.5716,3.5719,3.5636,3.564,3.5642,3.5644,0,0,0,0,0,0,0,3.5384,3.5397,3.553,3.5493,3.5494,3.5483,3.5491,3.5555,3.5572,3.5524,3.5522,3.5531,3.559,3.5613,3.562,3.572,3.5636,3.5641,3.5645,3.5647,3.5895,3.5898,0,0,0,0,0,0,3.538,3.5393,3.5527,3.5532,3.5433,3.5489,3.5498,3.5532,3.5571,3.5575,3.5534,3.5529,3.5605,3.5613,3.5622,3.5733,3.5642,3.5648,3.5651,3.5892,3.5896,3.5899,0,0,0,0,0,0,3.5376,3.5392,3.5524,3.5462,3.5478,3.5495,3.5534,3.5535,3.5557,3.5579,3.5581,3.5554,3.5603,3.5614,3.569,3.5735,3.565,3.5655,3.5888,3.5893,3.5898,3.5956,0,0,0,0,0,0,3.5371,3.5391,3.5429,3.5463,3.5481,3.5592,3.5537,3.5539,3.5568,3.5563,3.5598,3.5601,3.5601,3.5681,3.5695,3.5741,3.566,3.5884,3.5891,3.5896,3.595,3.5962,3.5973,0,0,0,0,0,3.5364,3.5442,3.5431,3.5447,3.5529,3.5595,3.5605,3.5605,3.5572,3.5608,3.5621,3.56,3.5728,3.5689,3.5705,3.5753,3.5881,3.5889,3.5896,3.5945,3.596,3.5972,0,0,0,0,0,0,3.5412,3.5446,3.5434,3.5526,3.5558,3.5589,3.5635,3.5621,3.5662,3.5655,3.5651,3.5659,3.5737,3.5753,3.5709,3.5844,3.5799,3.581,3.5832,3.5846,3.5857,3.5851,3.5665,0,0,0,0,0,3.5433,3.5485,3.5512,3.559,3.5607,3.5618,3.5647,3.5644,3.5676,3.5689,3.5708,3.5739,3.5786,3.5817,3.5861,3.5952,3.5958,3.5993,3.6004,3.6013,3.6022,3.6068,3.6083,3.5923,3.5923,3.5922,0,0,3.5477,3.5502,3.5536,3.56,3.5625,3.5677,3.563,3.5688,3.5726,3.5698,3.577,3.5785,3.5819,3.5902,3.5939,3.5917,3.6067,3.6022,3.6029,3.6033,3.6077,3.6092,3.6105,3.5927,3.5927,3.5926,0,0,3.5584,3.561,3.5676,3.5701,3.5738,3.5745,3.5761,3.5794,3.5803,3.5875,3.5854,3.5898,3.598,3.6004,3.6027,3.614,3.6121,3.6155,3.6213,3.6258,3.627,3.6281,3.6319,3.6333,3.6163,3.6164,3.6164,0,3.5634,3.5713,3.5711,3.5771,3.5798,3.5775,3.5841,3.5865,3.5914,3.5933,3.5908,3.6008,3.6029,3.6116,3.6143,3.6164,3.6179,3.615,3.6269,3.628,3.629,3.6326,3.6341,3.6167,3.6167,3.6167,3.6166,0,3.5771,3.5826,3.5875,3.5924,3.5957,3.6019,3.6024,3.6058,3.605,3.6059,3.6131,3.6156,3.6204,3.6224,3.6218,3.6309,3.6294,3.6269,3.6223,3.6309,3.6343,3.6357,3.6173,3.6171,3.617,3.6169,0,0,3.5911,3.5956,3.5974,3.5995,3.6033,3.6075,3.6134,3.6181,3.6209,3.6243,3.6291,3.636,3.6336,3.6362,3.6358,3.6398,3.6482,3.6367,3.6368,3.6386,3.6581,3.6598,3.6615,3.647,3.6472,3.6475,3.6577,0,3.6018,3.6124,3.6123,3.622,3.6269,3.6246,3.6298,3.6326,3.6335,3.6376,3.6385,3.6433,3.6399,3.6414,3.6453,3.6464,3.6521,3.6456,3.6512,3.6514,3.6503,3.6632,3.6652,3.6748,3.659,3.6593,3.6594,0,3.6159,3.6198,3.63,3.6328,3.6349,3.6395,3.6436,3.6477,3.6507,3.651,3.6539,3.6528,3.6585,3.6538,3.6616,3.6573,3.6595,3.6604,3.6607,3.6611,3.6559,3.6638,3.6778,3.6792,3.6616,3.6614,3.6612,0,3.6248,3.6326,3.6396,3.6414,3.645,3.6482,3.6499,3.6526,3.6553,3.6589,3.6606,3.6648,3.6671,3.6702,3.6702,3.6668,3.678,3.6733,3.6782,3.6782,3.6806,3.6804,3.695,3.6823,3.6823,3.6823,3.6822,0,3.6367,3.643,3.6436,3.6479,3.6547,3.6544,3.6611,3.6624,3.6648,3.6691,3.6674,3.6715,3.6712,3.6753,3.6753,3.6815,3.6826,3.6829,3.6828,3.683,3.6829,3.6843,3.6836,3.6826,3.6826,3.6825,3.6824,0,3.6478,3.6485,3.656,3.6587,3.6595,3.6644,3.6666,3.6705,3.6712,3.6767,3.6779,3.679,3.6836,3.6839,3.6893,3.6892,3.6968,3.696,3.6958,3.6956,3.7004,3.6998,3.7163,3.7183,3.7045,3.7046,3.7047,0,3.6554,3.6601,3.6633,3.6661,3.6679,3.6725,3.6752,3.675,3.6779,3.6815,3.685,3.6895,3.693,3.7005,3.7016,3.7056,3.7048,3.7103,3.7054,3.7054,3.7046,3.7043,3.7046,3.7112,3.7114,3.7115,3.7116,0,3.6686,3.6686,3.6727,3.6769,3.6802,3.6835,3.6865,3.6888,3.6889,3.6922,3.697,3.6998,3.7052,3.7095,3.7134,3.7148,3.7132,3.7131,3.7144,3.7146,3.7142,3.7142,3.6982,3.7127,3.7126,3.7125,3.7125,3.7124,3.678,3.682,3.6848,3.6893,3.6915,3.6943,3.6981,3.6992,3.7032,3.7076,3.7072,3.7124,3.7149,3.72,3.7217,3.7256,3.7237,3.7256,3.7261,3.7265,3.7269,3.7137,3.7263,3.7263,3.7262,3.7262,3.7262,0,3.6909,3.6926,3.6968,3.701,3.7045,3.7027,3.7058,3.7088,3.7134,3.716,3.7195,3.7248,3.729,3.7303,3.7343,3.7372,3.7365,3.7382,3.7379,3.7382,3.7285,3.7269,3.7387,3.7387,3.7387,3.7387,3.7387,3.7387,3.6981,3.7046,3.705,3.7125,3.714,3.7192,3.7211,3.7235,3.7255,3.7315,3.735,3.7359,3.7379,3.742,3.7456,3.7459,3.7473,3.7493,3.7493,3.7402,3.7389,3.7377,3.7362,3.7497,3.7497,3.7586,3.7587,3.7587]}]]